Regional Weather Roundup
Issued by NWS

Home | Current Version | Previous Version | Text Only | Print | Product List | Glossary On
Versions: 1 2 3 4 5 6 7 8 9 10 11 12 13 14 15 16 17 18 19 20 21 22 23 24 25 26 27 28 29 30 31 32 33 34 35 36 37 38 39 40 41 42 43 44 45 46 47 48 49 50
000
ASUS43 KBIS 240210
RWRND

NORTH DAKOTA REGIONAL WEATHER ROUNDUP
NATIONAL WEATHER SERVICE BISMARCK ND
900 PM CDT SUN JUL 23 2017

NOTE: "FAIR" INDICATES FEW OR NO CLOUDS BELOW 12,000 FEET WITH NO
SIGNIFICANT WEATHER AND/OR OBSTRUCTIONS TO VISIBILITY.


NDZ001>003-009>011-017-240300-
NORTHWEST NORTH DAKOTA

CITY           SKY/WX    TMP DP  RH WIND       PRES   REMARKS
WILLISTON      CLEAR     87  55  33 E10       29.85F
MINOT          CLEAR     80  53  39 E12       29.92S
MINOT AFB      CLEAR     76  56  49 SE8       29.90F
$$

NDZ018>021-031>035-040>046-240300-
SOUTHWEST NORTH DAKOTA

CITY           SKY/WX    TMP DP  RH WIND       PRES   REMARKS
BISMARCK       CLEAR     77  59  53 SE7       29.95F
DICKINSON      CLEAR     80  56  43 SE10      29.92F
GARRISON         N/A     77  53  43 E7        29.93F
HETTINGER ARPT CLEAR     81  51  35 SE13      29.96F
$$

NDZ004>008-012>016-024-026-027-054-240300-
NORTHEAST NORTH DAKOTA

CITY           SKY/WX    TMP DP  RH WIND       PRES   REMARKS
GRAND FORKS    PTCLDY    71  66  84 SW6       29.96S
GRND FRKS AFB  CLEAR     70  63  77 S6        29.97S
DEVILS LAKE    CLEAR     73  59  61 SE3       29.98S
$$

NDZ022-023-025-028>030-036>039-047>053-240300-
SOUTHEAST NORTH DAKOTA

CITY           SKY/WX    TMP DP  RH WIND       PRES   REMARKS
FARGO          CLEAR     71  62  73 E6        29.97S
JAMESTOWN      CLEAR     71  61  70 SE6       29.98S
$$





USA.gov is the U.S. government's official web portal to all federal, state and local government web resources and services.